Wind_Speed
16 15 15 15 14 14 14 13 13 12 11 10 9 7 7 6 6 7 7 7 7 7 7 7 7 7 6 6 5 6 6 6 6 6 6 6 6 7 7 7 9 10
17 16 15 14 14 13 13 13 12 11 10 8 7 6 6 5 5 6 6 7 8 8 8 8 8 8 7 7 7 7 7 7 6 7 7 7 6 7 7 8 9 10
17 17 16 15 15 15 15 14 12 11 9 7 6 6 6 6 5 6 7 8 9 9 10 10 10 10 10 10 9 8 8 8 8 8 8 8 7 7 8 8 8 8
18 17 17 17 17 17 16 14 13 11 10 8 7 6 6 7 6 7 9 10 11 11 11 12 12 12 12 11 10 9 8 8 8 8 8 8 8 8 7 8 8 7
19 18 18 18 18 17 16 14 13 12 11 10 8 8 7 8 8 8 10 12 12 13 13 14 14 13 12 11 9 9 8 8 8 8 8 8 8 7 7 7 7 8
20 19 18 18 17 16 16 15 15 14 13 11 10 10 9 9 9 9 11 13 14 15 15 15 14 13 11 10 9 8 8 7 7 7 7 7 7 7 6 6 6 7
20 19 19 18 17 16 16 16 15 14 14 13 12 11 10 11 11 11 12 14 15 16 16 15 14 13 11 10 9 8 8 7 7 7 6 6 7 6 6 5 5 6
22 21 20 19 18 17 18 17 16 15 15 14 13 12 11 12 12 12 13 15 16 17 17 16 14 12 11 10 9 8 7 7 6 6 6 6 5 5 5 5 5 5
24 22 21 20 19 19 19 18 17 16 15 14 14 14 12 12 13 14 14 16 17 17 17 16 15 13 12 11 10 9 8 7 6 5 5 5 5 4 4 4 4 5
25 24 22 20 20 20 20 19 18 17 15 15 15 14 13 13 13 14 15 16 17 18 18 17 15 14 13 12 11 10 8 7 6 5 4 4 4 4 3 3 4 4
25 24 23 21 21 21 21 20 20 18 16 16 15 13 13 13 13 14 15 16 17 18 19 18 16 15 13 12 11 10 9 8 7 6 5 4 4 4 4 4 4 4
24 24 24 24 23 23 23 22 21 19 18 17 16 15 14 13 14 15 16 17 18 19 20 19 18 16 14 13 11 10 9 8 7 6 6 5 5 5 5 5 5 5
24 24 25 26 26 25 25 23 22 21 21 20 18 17 16 14 14 15 17 18 19 19 20 20 19 18 16 15 13 11 10 9 8 7 6 6 6 6 6 6 6 6
25 26 26 27 27 28 26 25 24 23 22 22 20 19 17 16 16 16 17 18 19 20 20 21 20 19 18 16 15 13 12 10 8 8 7 7 7 8 8 7 7 7
26 26 27 27 27 27 26 25 25 24 24 23 22 21 20 19 18 18 18 18 19 19 20 20 21 20 20 18 17 15 14 12 10 9 9 8 9 9 9 9 9 9
25 25 26 26 26 26 26 26 26 25 25 24 23 22 22 21 20 20 19 18 18 19 19 20 20 21 21 20 19 18 16 15 13 11 10 10 10 10 11 11 11 11
23 24 25 26 26 27 27 27 27 27 27 26 25 24 23 23 22 21 20 20 19 19 19 19 20 21 22 22 22 21 20 18 16 14 13 13 12 12 12 13 13 13
21 22 24 25 26 27 28 29 29 29 29 28 27 26 26 25 24 23 22 22 22 21 20 20 20 21 22 23 23 23 22 21 19 17 16 15 15 14 14 15 15 15
21 21 22 24 25 27 28 29 29 29 29 30 29 29 29 28 26 25 25 24 24 23 23 22 22 23 23 23 23 24 23 23 22 20 19 18 18 17 17 16 16 17
23 22 22 22 23 25 27 28 29 29 30 30 31 31 30 29 28 28 27 27 26 25 25 25 25 25 25 25 24 24 24 24 24 23 22 21 20 20 19 18 18 18
27 25 24 24 23 24 24 25 27 28 29 30 31 31 31 30 30 30 30 29 29 28 27 27 27 28 27 27 26 25 25 25 24 24 24 23 22 22 22 21 20 20
32 30 29 28 27 26 25 24 25 26 28 29 30 30 30 30 31 31 31 31 31 30 29 28 29 29 29 28 28 28 27 25 25 25 25 25 24 24 24 24 23 22
35 34 32 31 30 28 27 25 25 26 26 27 27 28 29 29 30 30 31 31 31 31 31 30 31 31 31 30 30 30 29 27 26 26 26 26 27 27 26 26 26 25
37 35 34 33 32 30 29 27 27 27 26 26 26 26 27 28 29 30 31 31 31 31 31 31 32 33 33 32 32 32 31 29 28 27 27 28 28 28 28 28 28 28
37 34 32 32 32 31 30 29 29 28 28 27 26 26 26 26 27 28 29 29 30 30 30 30 31 32 33 33 33 33 32 31 30 29 28 28 29 30 30 31 31 31
38 33 30 29 30 31 31 31 31 30 29 28 27 27 26 27 26 26 27 27 28 29 29 29 30 31 32 33 33 33 33 33 32 31 29 30 31 31 32 32 33 34
Wind_Direction
193 193 192 190 186 182 183 184 182 181 182 182 181 180 178 169 159 159 163 164 165 171 172 166 162 161 159 155 150 147 141 137 141 145 147 156 164 166 166 167 167 162
194 197 198 199 197 193 193 194 191 189 190 189 182 174 169 161 153 151 152 153 158 164 165 162 159 158 154 147 140 134 127 123 128 134 139 149 158 157 156 161 170 169
193 197 199 201 203 204 203 201 199 197 195 195 188 172 162 157 152 146 142 144 152 156 158 159 156 151 144 136 129 121 114 112 114 122 130 141 148 148 149 153 160 168
195 197 200 201 204 208 208 206 205 202 199 199 193 177 165 160 157 150 142 142 148 151 154 153 148 143 137 131 124 116 108 104 104 109 119 132 141 142 144 147 150 158
197 198 202 204 205 207 209 209 207 205 205 204 196 185 175 167 164 156 147 145 148 150 151 149 144 141 137 131 124 116 109 102 100 102 109 120 130 136 141 147 151 155
202 201 203 206 208 207 207 209 208 207 208 209 203 194 183 173 170 164 154 150 151 152 152 151 148 144 141 135 129 123 114 107 103 101 103 108 117 125 134 147 156 159
207 206 205 206 207 207 209 211 210 209 210 211 209 203 190 180 176 171 162 156 156 157 156 156 154 151 147 142 136 131 125 119 114 109 107 108 112 115 121 133 149 163
209 209 207 205 204 207 211 213 211 211 211 211 211 208 198 187 182 177 170 164 162 162 162 162 160 158 154 150 145 141 135 130 125 120 119 118 119 122 122 123 134 152
210 211 210 207 205 207 211 213 213 213 211 210 211 210 203 195 187 183 177 172 169 168 168 167 166 164 162 158 155 152 148 144 139 134 131 130 131 135 135 133 134 142
209 211 211 209 208 210 212 213 216 216 213 214 215 212 208 201 194 190 185 179 176 174 173 174 172 170 169 166 163 161 160 158 155 152 150 149 149 151 154 156 156 156
208 209 210 209 209 212 213 214 217 217 216 218 220 217 212 205 198 196 193 187 183 181 180 180 179 178 176 173 171 169 169 169 169 168 168 170 173 173 175 180 184 186
209 208 208 209 209 211 213 214 216 217 217 219 220 220 218 211 201 198 197 195 191 188 187 186 185 183 182 181 179 178 178 178 179 182 185 187 193 195 195 196 199 202
207 207 207 208 209 211 212 214 215 216 217 218 218 219 220 217 209 202 200 200 198 195 194 193 191 190 189 188 186 186 187 187 187 192 199 204 207 211 212 211 211 213
206 206 208 209 210 213 213 214 216 217 218 219 219 218 217 218 216 210 205 204 203 202 200 199 198 196 196 195 194 195 195 196 199 203 208 214 217 220 222 224 222 221
207 207 209 210 213 215 216 216 217 218 221 222 222 220 218 218 218 217 213 209 207 207 206 204 202 202 204 204 205 207 207 206 209 212 217 220 222 224 226 229 230 229
208 209 210 212 214 215 216 217 218 219 222 224 223 223 222 220 220 221 220 217 213 211 210 207 206 206 209 211 213 215 215 215 217 222 227 229 228 229 230 231 233 234
206 209 211 211 213 214 215 216 218 219 221 223 223 224 224 224 223 223 224 223 221 217 213 211 210 211 213 215 217 219 220 221 223 228 233 236 236 235 234 234 235 236
203 205 208 211 212 214 216 216 218 219 219 221 222 222 224 225 225 224 224 225 226 224 220 216 214 216 217 217 218 220 222 224 227 231 235 239 242 242 240 239 238 238
201 202 205 208 210 213 215 217 218 219 219 220 220 221 222 223 224 224 224 225 227 227 225 222 220 221 221 221 220 221 222 225 228 231 235 239 243 244 245 244 243 242
200 203 206 208 210 213 214 216 218 218 219 220 220 221 222 222 223 224 225 226 227 227 227 226 226 226 227 226 225 225 224 225 228 231 233 237 241 243 245 246 245 245
198 200 205 209 213 216 216 216 217 218 219 220 221 222 222 222 223 224 225 226 227 227 228 228 229 230 231 231 231 231 229 227 228 231 233 235 238 240 242 243 243 244
196 198 201 206 211 215 217 217 217 218 220 221 222 223 223 224 224 225 225 227 227 228 229 230 231 233 234 234 235 236 235 233 232 233 235 236 236 237 237 239 240 242
198 197 199 203 208 211 213 214 216 218 220 222 223 224 224 225 225 226 227 228 229 229 228 229 231 234 235 236 236 237 238 238 236 236 236 237 237 236 235 235 237 239
205 199 198 202 206 209 210 211 214 217 220 222 222 223 225 225 226 227 229 230 231 231 230 230 231 234 235 236 237 238 239 239 238 237 237 238 238 238 237 235 236 238
216 207 201 201 204 208 210 211 213 216 219 221 222 223 225 226 227 228 230 231 233 234 233 233 233 235 237 238 238 239 239 240 240 238 238 239 241 241 240 238 237 238
224 219 211 205 206 209 213 214 214 216 218 221 222 223 225 227 228 229 229 231 233 234 236 236 236 237 239 239 240 241 241 241 241 240 239 240 242 242 242 241 240 240
Height
5938 5939 5940 5941 5942 5943 5944 5944 5945 5946 5947 5949 5950 5950 5951 5952 5953 5954 5954 5954 5955 5955 5956 5956 5957 5957 5958 5958 5958 5959 5959 5958 5959 5959 5959 5960 5960 5960 5960 5961 5961 5961
5937 5938 5939 5941 5942 5943 5943 5944 5945 5946 5947 5948 5949 5950 5951 5952 5952 5953 5953 5954 5954 5955 5955 5956 5956 5957 5957 5958 5959 5959 5959 5958 5959 5959 5959 5960 5960 5960 5960 5961 5961 5961
5937 5937 5939 5940 5941 5942 5943 5944 5944 5945 5947 5948 5949 5950 5950 5951 5951 5952 5953 5953 5953 5954 5955 5955 5956 5957 5958 5958 5958 5959 5959 5959 5959 5959 5959 5960 5960 5960 5961 5961 5961 5962
5936 5937 5938 5939 5940 5942 5943 5944 5944 5945 5946 5947 5948 5949 5950 5950 5951 5951 5952 5952 5953 5953 5954 5955 5956 5957 5958 5958 5958 5959 5959 5959 5959 5959 5959 5960 5960 5961 5961 5961 5961 5962
5934 5936 5937 5938 5940 5941 5942 5943 5944 5944 5945 5946 5947 5948 5949 5950 5950 5951 5951 5952 5952 5953 5953 5954 5956 5957 5957 5958 5958 5959 5959 5959 5959 5960 5960 5960 5960 5961 5961 5961 5961 5962
5933 5934 5936 5937 5938 5940 5941 5942 5943 5944 5944 5945 5946 5947 5948 5949 5950 5950 5951 5952 5952 5953 5953 5954 5955 5956 5957 5958 5958 5959 5959 5960 5960 5960 5960 5960 5960 5961 5961 5961 5962 5962
5932 5933 5934 5936 5937 5939 5940 5941 5942 5943 5944 5944 5945 5946 5947 5948 5949 5950 5950 5951 5952 5953 5953 5954 5955 5956 5957 5958 5958 5959 5960 5960 5961 5961 5961 5961 5961 5961 5961 5961 5962 5962
5930 5931 5933 5934 5936 5937 5938 5940 5942 5943 5943 5944 5944 5945 5946 5947 5948 5949 5950 5951 5952 5953 5953 5954 5955 5956 5957 5958 5959 5959 5960 5960 5961 5961 5961 5961 5961 5961 5961 5962 5962 5962
5927 5929 5931 5933 5934 5935 5937 5938 5940 5941 5942 5943 5943 5944 5945 5946 5947 5948 5949 5950 5951 5952 5953 5954 5955 5956 5957 5958 5958 5959 5960 5960 5961 5961 5962 5962 5962 5962 5962 5962 5962 5962
5925 5928 5930 5932 5933 5934 5935 5937 5938 5939 5941 5942 5942 5943 5944 5945 5946 5947 5948 5949 5950 5951 5952 5953 5954 5955 5956 5957 5958 5959 5959 5960 5960 5961 5961 5962 5962 5962 5962 5962 5962 5962
5923 5925 5928 5930 5931 5932 5933 5935 5936 5938 5939 5940 5941 5942 5943 5944 5945 5946 5947 5948 5949 5950 5951 5952 5953 5955 5955 5956 5957 5958 5959 5959 5960 5960 5961 5961 5961 5962 5962 5962 5962 5962
5921 5923 5926 5928 5929 5930 5931 5933 5934 5936 5937 5938 5939 5940 5941 5943 5944 5945 5946 5947 5948 5949 5950 5951 5952 5953 5954 5955 5956 5957 5958 5959 5959 5960 5960 5961 5961 5961 5961 5961 5961 5961
5919 5921 5923 5924 5926 5928 5929 5931 5933 5934 5935 5937 5938 5939 5940 5941 5942 5943 5944 5945 5946 5947 5948 5950 5951 5952 5953 5954 5955 5956 5957 5958 5958 5959 5959 5960 5960 5960 5961 5961 5961 5961
5916 5918 5920 5921 5923 5925 5927 5929 5931 5933 5934 5935 5936 5937 5938 5939 5940 5941 5942 5943 5944 5946 5947 5948 5949 5951 5952 5953 5954 5954 5955 5956 5957 5958 5958 5959 5959 5959 5959 5960 5960 5960
5913 5915 5917 5919 5921 5923 5925 5927 5929 5931 5932 5933 5934 5935 5936 5937 5938 5939 5940 5942 5943 5944 5945 5946 5948 5949 5950 5951 5952 5953 5954 5954 5955 5956 5957 5958 5958 5958 5958 5959 5959 5959
5911 5913 5915 5917 5919 5921 5923 5925 5926 5928 5930 5931 5932 5933 5934 5935 5936 5937 5939 5940 5941 5942 5943 5944 5946 5947 5948 5949 5950 5951 5952 5953 5953 5954 5955 5956 5956 5957 5957 5957 5958 5958
5909 5911 5913 5915 5917 5918 5920 5922 5923 5925 5927 5929 5930 5931 5932 5933 5935 5936 5937 5938 5939 5940 5941 5942 5943 5945 5945 5946 5948 5949 5950 5951 5951 5952 5953 5954 5955 5955 5955 5956 5956 5957
5907 5908 5910 5912 5914 5915 5917 5919 5920 5922 5924 5926 5927 5929 5930 5931 5932 5934 5935 5936 5937 5938 5939 5940 5941 5942 5943 5944 5945 5946 5947 5948 5949 5950 5951 5952 5953 5954 5954 5954 5955 5955
5904 5906 5907 5909 5911 5912 5914 5916 5917 5919 5921 5923 5924 5925 5926 5928 5930 5931 5932 5933 5934 5935 5936 5937 5938 5939 5940 5941 5942 5943 5945 5946 5947 5948 5949 5950 5951 5952 5952 5953 5953 5954
5900 5902 5905 5906 5908 5909 5911 5913 5914 5916 5918 5919 5920 5922 5923 5925 5927 5928 5929 5930 5932 5933 5933 5934 5935 5936 5936 5938 5939 5940 5942 5943 5944 5945 5946 5948 5949 5949 5950 5951 5951 5952
5895 5898 5900 5903 5905 5907 5909 5910 5911 5913 5914 5915 5917 5918 5920 5922 5923 5924 5926 5927 5928 5930 5931 5932 5932 5933 5933 5934 5936 5937 5938 5940 5941 5942 5943 5945 5946 5947 5947 5948 5949 5949
5887 5891 5894 5897 5900 5903 5906 5907 5909 5910 5911 5912 5913 5915 5917 5918 5920 5921 5922 5924 5925 5926 5928 5929 5930 5930 5930 5932 5933 5934 5935 5937 5938 5939 5940 5942 5943 5944 5944 5945 5945 5946
5882 5883 5887 5892 5895 5898 5902 5904 5905 5907 5908 5909 5910 5912 5914 5915 5917 5918 5919 5920 5921 5923 5925 5926 5926 5927 5928 5929 5930 5931 5932 5934 5935 5936 5937 5939 5939 5940 5941 5941 5942 5942
5885 5881 5881 5886 5891 5894 5898 5900 5902 5904 5905 5906 5907 5909 5910 5912 5913 5914 5915 5917 5918 5920 5921 5922 5923 5923 5924 5925 5926 5927 5928 5930 5932 5933 5934 5935 5936 5937 5937 5938 5938 5939
5890 5885 5881 5883 5887 5891 5894 5897 5899 5900 5902 5903 5905 5906 5907 5909 5910 5911 5913 5914 5915 5916 5918 5919 5920 5920 5921 5922 5922 5923 5925 5926 5927 5929 5931 5932 5932 5933 5933 5934 5934 5935
5891 5890 5886 5884 5886 5889 5891 5893 5896 5897 5899 5901 5902 5903 5904 5906 5907 5909 5910 5911 5912 5913 5914 5916 5917 5917 5918 5918 5919 5920 5921 5922 5923 5925 5927 5928 5928 5929 5929 5930 5930 5931